Location: Pescara
(42.4765°N, 14.1734°E)
Time: 20:42:20
(UTC+02:00)

ISS - Visible Passes

Search period start: 25 September 2017 00:00
Search period end: 05 October 2017 00:00
Orbit: 401 x 407 km, 51.6° (Epoch: 26 September)

Date Brightness Start Highest point End Pass type
(mag) Time Alt. Az. Time Alt. Az. Time Alt. Az.
25 Sep -2.3 19:43:10 10° S 19:45:34 19° SE 19:46:47 16° ESE visible
25 Sep -1.1 21:18:34 10° WSW 21:19:30 17° WSW 21:19:30 17° WSW visible
26 Sep -4.0 20:26:08 10° SW 20:29:24 85° SSE 20:29:51 64° ENE visible
27 Sep -3.4 19:33:59 10° SSW 19:37:07 44° SE 19:40:01 12° ENE visible
27 Sep -1.5 21:10:44 10° W 21:12:41 25° NW 21:12:41 25° NW visible
28 Sep -2.9 20:18:01 10° WSW 20:21:11 45° NNW 20:22:41 25° NNE visible
29 Sep -3.7 19:25:29 10° WSW 19:28:45 79° NW 19:32:02 10° NE visible
29 Sep -1.4 21:03:03 10° WNW 21:05:12 20° NNW 21:05:12 20° NNW visible
30 Sep -2.0 20:10:11 10° W 20:13:02 27° NNW 20:14:57 16° NNE visible
01 Oct -2.6 19:17:23 10° W 19:20:28 39° NNW 19:23:35 10° NE visible
01 Oct -1.3 20:55:20 10° NW 20:57:16 17° NNW 20:57:16 17° NNW visible
02 Oct -1.6 20:02:27 10° WNW 20:04:55 19° NNW 20:06:53 13° NNE visible
03 Oct -1.9 19:09:31 10° WNW 19:12:16 24° NNW 19:15:02 10° NE visible
03 Oct -1.3 20:47:23 10° NW 20:49:05 16° N 20:49:05 16° N visible
04 Oct -1.5 19:54:37 10° NW 19:56:50 17° N 19:58:36 12° NNE visible
